Home   Weather   Columbus Junction   Past weeks
Flag for USA

Past Weather in Columbus Junction, Iowa, USA — Yesterday and Last 2 Weeks

Currently: 30 °F. Overcast. (Weather station: Fair Field, USA). See more current weather

Past Weather in Columbus Junction — Graph

°F

Columbus Junction Temperature Yesterday

Maximum temperature yesterday: 34 °F (at 2:35 pm)
Minimum temperature yesterday: 30 °F (at 1:35 am)
Average temperature yesterday: 31 °F

High & Low Weather Summary for the Past Weeks

 TemperatureHumidityPressure
High41 °F (Jan 12, 3:15 pm)100% (Jan 1, 8:15 am)30.42 "Hg (Jan 1, 8:15 am)
Low10 °F (Jan 2, 3:35 am)66% (Jan 12, 3:15 pm)29.27 "Hg (Jan 15, 6:35 am)
Average28 °F98%30.05 "Hg
* Reported Jan 1 8:15 am — Jan 16 8:15 am, Columbus Junction. Weather by CustomWeather, © 2021

Note: Actual official high and low records may vary slightly from our data, if they occured in-between our weather recording intervals... More about our weather records

Columbus Junction Weather History for the Previous 24 Hours

Scroll right to see more
 ConditionsComfort  
Time TempWeatherWind HumidityBarometerVisibility
8:15 am
Sat, Jan 16
30 °FMostly cloudy.14 mph100%29.76 "Hg10 mi
7:35 am30 °FOvercast.16 mph100%29.75 "Hg10 mi
7:15 am30 °FOvercast.14 mph100%29.75 "HgN/A
6:55 am30 °FOvercast.16 mph100%29.75 "Hg10 mi
6:35 am30 °FLow clouds.18 mph100%29.75 "Hg10 mi
6:15 am30 °FLow clouds.21 mph100%29.75 "Hg9 mi
5:55 am30 °FLow clouds.16 mph100%29.74 "Hg10 mi
5:35 am30 °FLow clouds.17 mph100%29.74 "Hg9 mi
5:15 am30 °FLow clouds.17 mph100%29.73 "Hg10 mi
4:55 am32 °FLow clouds.15 mph100%29.72 "Hg9 mi
4:35 am32 °FLow clouds.18 mph100%29.72 "Hg9 mi
4:15 am32 °FLow clouds.17 mph100%29.72 "Hg7 mi
3:55 am32 °FIce fog.18 mph100%29.71 "Hg6 mi
3:35 am32 °FIce fog.16 mph100%29.72 "Hg6 mi
3:15 am32 °FLow clouds.15 mph100%29.72 "Hg8 mi
2:55 am32 °FIce fog.14 mph100%29.72 "Hg6 mi
2:35 am30 °FPartly cloudy.13 mph100%29.72 "Hg7 mi
2:15 am30 °FPassing clouds.12 mph100%29.72 "Hg7 mi
1:55 am30 °FPassing clouds.10 mph100%29.71 "Hg9 mi
1:35 am30 °FPassing clouds.14 mph100%29.71 "Hg10 mi
1:15 am30 °FMostly cloudy.12 mph100%29.70 "Hg10 mi
12:55 am30 °FOvercast.13 mph100%29.69 "Hg9 mi
12:35 am30 °FPassing clouds.12 mph100%29.69 "Hg9 mi
12:15 am30 °FPassing clouds.10 mph100%29.69 "Hg9 mi
11:55 pm
Fri, Jan 15
30 °FPassing clouds.9 mph100%29.69 "Hg10 mi
11:35 pm30 °FPassing clouds.8 mph100%29.69 "Hg10 mi
11:15 pm30 °FClear.8 mph100%29.69 "Hg10 mi
10:55 pm32 °FPartly cloudy.8 mph100%29.69 "Hg10 mi
10:35 pm32 °FMostly cloudy.10 mph100%29.69 "Hg10 mi
10:15 pm32 °FOvercast.10 mph100%29.68 "Hg10 mi
9:55 pm32 °FMostly cloudy.9 mph100%29.68 "Hg10 mi
9:35 pm32 °FOvercast.10 mph100%29.67 "Hg10 mi
9:15 pm30 °FMostly cloudy.8 mph100%29.68 "Hg10 mi
8:55 pm30 °FMostly cloudy.8 mph100%29.67 "Hg10 mi
8:35 pm30 °FMostly cloudy.9 mph100%29.66 "Hg10 mi
8:15 pm32 °FOvercast.9 mph100%29.66 "Hg10 mi
7:55 pm32 °FOvercast.9 mph100%29.66 "Hg10 mi
7:35 pm32 °FOvercast.9 mph100%29.65 "Hg10 mi
6:55 pm32 °FOvercast.9 mph100%29.65 "Hg10 mi
6:35 pm32 °FOvercast.10 mph100%29.63 "Hg10 mi
5:55 pm32 °FMostly cloudy.12 mph100%29.61 "Hg10 mi
5:35 pm32 °FMostly cloudy.12 mph100%29.61 "Hg10 mi
5:15 pm32 °FMostly cloudy.10 mph100%29.60 "Hg10 mi
4:55 pm34 °FMostly cloudy.12 mph100%29.59 "Hg10 mi
4:35 pm34 °FBroken clouds.13 mph100%29.58 "Hg10 mi
4:15 pm34 °FMostly cloudy.15 mph100%29.56 "Hg10 mi
3:55 pm34 °FCloudy.15 mph100%29.55 "Hg10 mi
3:35 pm34 °FBroken clouds.14 mph100%29.53 "Hg10 mi
3:15 pm34 °FBroken clouds.13 mph100%29.51 "Hg10 mi
2:55 pm34 °FBroken clouds.15 mph100%29.50 "Hg10 mi
2:35 pm34 °FCloudy.17 mph100%29.49 "Hg10 mi
2:15 pm32 °FCloudy.14 mph100%29.47 "Hg10 mi
1:15 pm32 °FMostly cloudy.12 mph100%29.42 "Hg10 mi
12:55 pm32 °FOvercast.12 mph100%29.41 "Hg10 mi
12:35 pm32 °FMostly cloudy.9 mph100%29.40 "Hg10 mi
12:15 pm32 °FMostly cloudy.10 mph100%29.39 "Hg9 mi
11:55 am32 °FMostly cloudy.9 mph100%29.38 "Hg9 mi
11:35 am32 °FBroken clouds.10 mph100%29.38 "Hg8 mi
10:55 am32 °FMostly cloudy.8 mph100%29.36 "Hg7 mi
10:35 am32 °FLow clouds.7 mph100%29.35 "Hg10 mi
10:15 am30 °FLow clouds.3 mph100%29.34 "Hg10 mi
9:55 am32 °FMostly cloudy.No wind100%29.33 "Hg10 mi
9:35 am30 °FLow clouds.No wind100%29.32 "Hg10 mi
9:15 am30 °FLow clouds.No wind100%29.31 "Hg10 mi
Weather by CustomWeather, © 2021

See weather overview